Chester, CT

10:15 PM EDT on October 14, 2019 (GMT -0400)
Chester

Weather History for KSNC - September, 2019

Change the Weather History Date:

Tuesday, September 17, 2019

  Actual Average (WUND) Record (WUND)
Temperature  
Mean Temperature 62 °F -  
Max Temperature 73 °F - - (-1)
Min Temperature 50 °F - - (-1)
Degree Days  
Heating Degree Days 4    
Growing Degree Days 12 (Base 50)    
Moisture  
Dew Point 48 °F    
Average Humidity 64    
Maximum Humidity 94    
Minimum Humidity 31    
Precipitation  
Precipitation 0.00 in - - ()
Sea Level Pressure  
Sea Level Pressure 30.12 in    
Wind  
Wind Speed 5 mph ()    
Max Wind Speed 14 mph    
Max Gust Speed 23 mph    
Visibility 10.0 miles    
Events      
Averages and records for this station are not official NWS values.
T = Trace of Precipitation, MM = Missing Value Source: Averaged Metar Reports

Daily Weather History Graph

Daily Weather History Graph

Search for Another Location

Airport or City:

Astronomy

Sep. 17, 2019 Rise Set
Actual Time 6:32 AM EDT 6:56 PM EDT
Civil Twilight 6:04 AM EDT 7:23 PM EDT
Nautical Twilight 5:31 AM EDT 7:56 PM EDT
Astronomical Twilight 4:58 AM EDT 8:29 PM EDT
Moon 8:56 PM EDT (9/17) 9:35 AM EDT (9/17)
Length of Visible Light 13h 19m
Length of Day
12h 24m
Waning Gibbous, 89% of the Moon is Illuminated
Sep 17
Waning Gibbous
Sep 21
Last Quarter
Sep 28
New
Oct 5
First Quarter
Oct 13
Full

Hourly Weather History & Observations

Time (EDT) Temp. Dew Point Humidity Pressure Visibility Wind Dir Wind Speed Gust Speed Precip Events Conditions
12:15 AM 57.2 °F 50.0 °F 77% 30.08 in 10.0 mi North 4.6 mph - N/A   Clear
12:35 AM 55.4 °F 48.2 °F 77% 30.09 in 10.0 mi North - - N/A   Clear
12:55 AM 55.4 °F 48.2 °F 77% 30.09 in 10.0 mi North 5.8 mph - N/A   Clear
1:15 AM 55.4 °F 48.2 °F 77% 30.09 in 10.0 mi North 5.8 mph - N/A   Clear
1:35 AM 55.4 °F 46.4 °F 72% 30.09 in 10.0 mi North 5.8 mph - N/A   Clear
1:55 AM 55.4 °F 46.4 °F 72% 30.09 in 10.0 mi North 5.8 mph - N/A   Clear
2:15 AM 55.4 °F 46.4 °F 72% 30.09 in 10.0 mi North 5.8 mph - N/A   Clear
2:35 AM 53.6 °F 46.4 °F 77% 30.09 in 10.0 mi North 4.6 mph - N/A   Clear
2:55 AM 53.6 °F 46.4 °F 77% 30.09 in 10.0 mi Calm Calm - N/A   Clear
3:15 AM 53.6 °F 46.4 °F 77% 30.09 in 10.0 mi North 4.6 mph - N/A   Clear
3:35 AM 53.6 °F 46.4 °F 77% 30.09 in 10.0 mi NNW 5.8 mph - N/A   Clear
4:15 AM 53.6 °F 46.4 °F 77% 30.09 in 10.0 mi NW 3.5 mph - N/A   Clear
4:35 AM 53.6 °F 46.4 °F 77% 30.09 in 10.0 mi NW 4.6 mph - N/A   Clear
4:55 AM 53.6 °F 46.4 °F 77% 30.09 in 10.0 mi NW 4.6 mph - N/A   Clear
5:15 AM 51.8 °F 46.4 °F 82% 30.09 in 10.0 mi NW 3.5 mph - N/A   Clear
5:35 AM 50.0 °F 46.4 °F 87% 30.10 in 10.0 mi NNW 3.5 mph - N/A   Clear
5:55 AM 50.0 °F 48.2 °F 94% 30.11 in 10.0 mi NNW 4.6 mph - N/A   Clear
6:15 AM 51.8 °F 48.2 °F 88% 30.11 in 10.0 mi NNW 4.6 mph - N/A   Clear
6:35 AM 51.8 °F 48.2 °F 88% 30.11 in 10.0 mi NNW 5.8 mph - N/A   Clear
6:55 AM 51.8 °F 48.2 °F 88% 30.12 in 10.0 mi NNW 5.8 mph - N/A   Clear
7:15 AM 53.6 °F 48.2 °F 82% 30.12 in 10.0 mi NNW 5.8 mph - N/A   Clear
7:35 AM 55.4 °F 50.0 °F 82% 30.13 in 10.0 mi NNW 5.8 mph - N/A   Clear
7:55 AM 57.2 °F 50.0 °F 77% 30.14 in 10.0 mi NNW 5.8 mph - N/A   Clear
8:15 AM 59.0 °F 48.2 °F 67% 30.14 in 10.0 mi NNW 6.9 mph - N/A   Clear
8:35 AM 62.6 °F 48.2 °F 59% 30.14 in 10.0 mi North 8.1 mph - N/A   Clear
8:55 AM 62.6 °F 48.2 °F 59% 30.14 in 10.0 mi North 10.4 mph - N/A   Clear
9:15 AM 64.4 °F 48.2 °F 56% 30.15 in 10.0 mi NNW 8.1 mph - N/A   Clear
9:35 AM 64.4 °F 48.2 °F 56% 30.15 in 10.0 mi Variable 5.8 mph - N/A   Clear
10:15 AM 66.2 °F 48.2 °F 52% 30.15 in 10.0 mi Variable 5.8 mph 12.7 mph N/A   Clear
10:35 AM 68.0 °F 48.2 °F 49% 30.14 in 10.0 mi NNW 9.2 mph - N/A   Clear
10:55 AM 69.8 °F 46.4 °F 43% 30.14 in 10.0 mi North 10.4 mph - N/A   Clear
11:15 AM 69.8 °F 48.2 °F 46% 30.14 in 10.0 mi NNW 12.7 mph - N/A   Clear
11:35 AM 69.8 °F 44.6 °F 40% 30.14 in 10.0 mi North 12.7 mph - N/A   Clear
11:55 AM 69.8 °F 44.6 °F 40% 30.14 in 10.0 mi North 13.8 mph 20.7 mph N/A   Clear
12:15 PM 71.6 °F 46.4 °F 41% 30.13 in 10.0 mi NNW 12.7 mph - N/A   Clear
12:35 PM 71.6 °F 44.6 °F 38% 30.13 in 10.0 mi North 10.4 mph 21.9 mph N/A   Clear
12:55 PM 71.6 °F 44.6 °F 38% 30.13 in 10.0 mi North - - N/A   Clear
1:15 PM 71.6 °F 42.8 °F 35% 30.12 in 10.0 mi NNE 11.5 mph 18.4 mph N/A   Clear
1:35 PM 71.6 °F 42.8 °F 35% 30.12 in 10.0 mi North 11.5 mph - N/A   Clear
1:55 PM 71.6 °F 42.8 °F 35% 30.12 in 10.0 mi North 9.2 mph 16.1 mph N/A   Clear
2:15 PM 73.4 °F 41.0 °F 31% 30.12 in 10.0 mi North 11.5 mph 23.0 mph N/A   Clear
2:35 PM 73.4 °F 42.8 °F 33% 30.12 in 10.0 mi North 9.2 mph 19.6 mph N/A   Clear
2:55 PM 71.6 °F 44.6 °F 38% 30.11 in 10.0 mi NNE 9.2 mph 16.1 mph N/A   Clear
3:15 PM 73.4 °F 44.6 °F 36% 30.11 in 10.0 mi North 10.4 mph - N/A   Clear
3:35 PM 73.4 °F 42.8 °F 33% 30.11 in 10.0 mi NNE 9.2 mph 16.1 mph N/A   Clear
3:55 PM 73.4 °F 42.8 °F 33% 30.11 in 10.0 mi NNE 10.4 mph 17.3 mph N/A   Clear
4:15 PM 73.4 °F 44.6 °F 36% 30.11 in 10.0 mi Variable 5.8 mph 12.7 mph N/A   Clear
4:35 PM 71.6 °F 44.6 °F 38% 30.11 in 10.0 mi Variable 6.9 mph - N/A   Clear
4:55 PM 71.6 °F 44.6 °F 38% 30.11 in 10.0 mi NNE 8.1 mph 13.8 mph N/A   Clear
5:15 PM 71.6 °F 44.6 °F 38% 30.11 in 10.0 mi Variable 6.9 mph - N/A   Clear
5:35 PM 71.6 °F 46.4 °F 41% 30.11 in 10.0 mi NNE 5.8 mph - N/A   Clear
5:55 PM 69.8 °F 44.6 °F 40% 30.11 in 10.0 mi NE 5.8 mph 11.5 mph N/A   Clear
6:15 PM 68.0 °F 46.4 °F 46% 30.12 in 10.0 mi NE 4.6 mph - N/A   Clear
6:35 PM 66.2 °F 50.0 °F 56% 30.12 in 10.0 mi ENE 4.6 mph - N/A   Clear
6:55 PM 64.4 °F 50.0 °F 59% 30.13 in 10.0 mi Calm Calm - N/A   Clear
7:15 PM 60.8 °F 51.8 °F 72% 30.13 in 10.0 mi Calm Calm - N/A   Clear
7:35 PM 59.0 °F 51.8 °F 77% 30.14 in 10.0 mi Calm Calm - N/A   Clear
7:55 PM 57.2 °F 53.6 °F 88% 30.14 in 10.0 mi Calm Calm - N/A   Clear
8:15 PM 57.2 °F 51.8 °F 82% 30.15 in 10.0 mi Calm Calm - N/A   Clear
8:35 PM 57.2 °F 51.8 °F 82% 30.16 in 10.0 mi Calm Calm - N/A   Scattered Clouds
8:55 PM 57.2 °F 51.8 °F 82% 30.16 in 10.0 mi Calm Calm - N/A   Mostly Cloudy
9:15 PM 55.4 °F 51.8 °F 88% 30.16 in 10.0 mi Calm Calm - N/A   Scattered Clouds
9:55 PM 57.2 °F 51.8 °F 82% 30.17 in 10.0 mi Calm Calm - N/A   Scattered Clouds
10:15 PM 57.2 °F 51.8 °F 82% 30.17 in 10.0 mi Calm Calm - N/A   Mostly Cloudy
10:35 PM 57.2 °F 51.8 °F 82% 30.18 in 10.0 mi Calm Calm - N/A   Partly Cloudy
10:55 PM 57.2 °F 51.8 °F 82% 30.18 in 10.0 mi Calm Calm - N/A   Clear
11:15 PM 55.4 °F 51.8 °F 88% 30.18 in 10.0 mi Calm Calm - N/A   Clear
11:35 PM 55.4 °F 51.8 °F 88% 30.18 in 10.0 mi Calm Calm - N/A   Clear
11:55 PM 53.6 °F 51.8 °F 94% 30.18 in 10.0 mi Calm Calm - N/A   Clear